Theta_e
286 286 285 285 284 283 283 283 282 282 282 281 281 280 280 280 280 280 279 279 279 278 277 277 277 277 277 277 277 276 276 276 276 276 276 275 275 276 276 276 275 275 276 276 276 276 276 276 276 276 277 276 276 276 276 276 277 277 277 277 276 277 276 274 273 272 275 279 278 279 280 280 278 280 279 281 281 283 285 285 286 287 288 291 293
285 285 284 284 283 282 282 282 281 281 280 280 280 280 279 279 279 279 278 278 278 277 277 277 277 276 276 276 276 275 275 275 275 275 274 274 274 274 274 274 274 273 274 273 274 275 275 274 274 274 275 274 274 274 274 275 275 275 275 276 275 275 276 274 273 273 272 276 276 278 277 279 277 280 279 279 281 283 283 284 286 287 288 291 294
285 284 283 282 282 282 281 280 280 279 279 279 278 278 278 278 278 277 277 277 277 277 276 276 276 276 275 275 274 274 274 274 274 273 273 273 272 272 273 272 272 272 272 272 272 273 272 272 272 273 274 273 273 273 273 273 274 274 274 274 274 274 275 274 273 272 272 273 276 275 276 276 276 276 278 279 279 281 281 284 287 290 292 293 293
284 283 282 281 281 280 280 279 278 278 277 278 277 277 277 277 277 276 276 276 276 276 276 275 275 274 273 273 273 273 273 273 273 272 272 272 271 271 271 271 271 271 271 271 271 271 271 271 271 272 272 271 271 271 271 272 272 272 272 273 273 273 274 274 274 273 273 272 274 274 275 275 276 277 278 280 280 280 281 281 283 286 289 291 292
283 282 281 280 280 279 278 278 277 277 277 277 276 276 276 276 276 275 275 275 275 275 274 274 273 273 272 272 272 272 272 272 271 271 271 271 271 271 270 270 270 270 270 270 271 270 270 270 271 271 271 270 270 270 270 270 271 271 271 272 272 272 273 274 274 274 273 272 272 274 275 275 275 276 277 277 279 280 281 283 285 287 288 291 293
282 281 280 279 279 278 277 277 277 276 276 276 276 276 275 275 275 275 275 274 274 273 273 272 272 271 272 271 271 271 271 271 271 270 270 271 271 270 270 270 270 270 270 270 270 270 270 271 271 272 271 270 269 270 270 270 271 271 271 271 272 272 272 272 273 273 273 272 272 272 273 273 273 275 277 278 278 278 281 284 287 288 290 291 293
281 280 280 279 278 277 277 277 276 276 276 276 276 275 275 274 274 274 274 273 272 272 271 271 271 271 271 271 270 270 270 270 270 270 270 270 270 270 270 270 270 270 271 271 271 271 271 271 271 271 270 270 270 270 270 271 271 271 271 271 272 272 271 272 272 272 272 271 272 272 272 274 274 273 276 279 279 278 278 278 279 284 287 290 291
280 279 279 278 277 277 277 277 276 276 276 275 275 275 274 274 273 273 272 271 270 270 270 270 270 270 270 270 270 270 270 270 270 270 270 270 270 270 270 270 271 271 271 271 272 272 272 272 272 272 271 271 271 270 271 271 271 271 271 272 272 272 271 272 272 271 271 271 271 271 272 272 274 275 276 277 277 278 280 279 279 281 285 289 292
279 279 278 278 277 277 276 276 276 275 275 274 274 273 273 273 272 271 270 270 270 269 269 269 269 269 269 269 269 270 270 270 270 270 270 270 271 271 271 271 271 271 271 272 272 272 272 272 272 272 272 274 275 276 275 275 272 270 271 272 272 272 271 271 271 271 271 271 271 272 272 272 273 273 274 275 275 276 280 283 282 285 287 288 291
278 278 277 277 277 276 276 275 275 274 274 273 273 272 272 271 270 269 268 268 268 268 268 268 268 268 268 269 269 269 270 270 271 272 273 271 272 272 272 272 272 272 272 271 272 272 272 273 273 275 276 276 277 277 278 278 278 276 274 274 273 273 272 272 271 271 271 271 271 271 271 271 273 274 274 275 277 280 281 282 282 285 287 288 289
278 277 277 277 276 275 275 274 274 273 273 272 272 271 270 269 268 267 267 267 267 267 267 266 267 268 268 268 269 269 270 270 272 273 274 275 274 273 272 272 273 273 273 272 272 272 273 273 273 275 275 276 275 277 278 278 278 279 279 279 278 275 273 272 272 273 272 271 272 273 272 272 274 275 275 275 277 277 278 280 282 284 285 285 284
277 277 277 276 275 274 274 273 272 272 271 271 269 269 268 267 266 266 266 266 266 266 266 266 267 268 268 268 268 269 269 271 272 273 274 275 275 274 273 273 273 273 273 273 272 273 273 273 273 274 274 274 274 274 275 277 278 278 279 279 279 280 280 276 274 274 274 273 273 274 274 274 274 275 275 276 277 279 281 281 282 284 285 285 286
277 276 276 275 274 274 273 272 271 270 270 269 268 267 266 265 265 265 265 266 266 266 266 266 267 268 268 268 268 268 268 271 272 273 274 275 276 276 274 273 273 272 273 273 273 273 273 273 273 273 274 276 275 274 274 274 276 277 278 278 279 279 280 281 281 278 277 275 274 274 275 275 275 276 277 277 278 277 278 280 281 282 285 285 286
276 275 274 274 273 273 272 271 270 269 268 267 266 265 264 264 265 265 265 265 265 265 266 266 267 267 267 267 267 268 268 270 272 273 275 276 276 276 274 273 273 273 273 273 273 273 273 272 272 272 273 274 274 274 273 273 273 274 274 274 274 276 278 279 279 280 279 277 276 275 276 277 276 277 278 279 277 276 277 277 280 281 283 284 287
275 274 273 273 272 271 270 269 268 267 266 265 265 264 264 264 264 265 265 265 265 265 266 266 266 266 266 266 266 266 267 270 272 274 275 275 276 276 274 273 273 273 273 273 273 273 273 273 273 272 273 273 274 274 274 274 273 273 273 274 274 275 275 275 275 276 276 277 276 276 276 277 277 277 278 278 278 278 278 278 279 281 283 285 286
274 273 272 271 270 270 269 268 267 266 265 264 264 264 264 264 264 265 265 266 266 266 266 266 266 265 266 265 265 265 267 271 272 273 274 275 277 274 273 273 273 273 273 273 273 273 274 273 273 273 273 273 276 278 277 275 274 274 273 274 274 275 275 278 279 280 278 278 277 277 278 278 280 279 279 278 278 279 279 280 281 282 282 282 282
273 272 271 270 269 269 268 267 266 265 264 264 263 264 264 264 264 265 264 265 265 265 265 265 266 265 265 265 265 265 266 269 272 273 274 276 275 273 272 272 272 272 272 273 273 273 274 274 274 273 274 274 276 279 279 278 275 274 274 274 274 275 275 277 279 281 281 282 282 283 282 283 283 283 283 284 282 281 280 279 279 281 281 280 282
272 271 270 269 268 268 267 266 265 264 264 263 263 264 264 264 264 265 264 264 265 265 265 265 265 266 265 265 265 265 266 268 272 273 274 275 275 272 272 271 271 272 272 273 273 274 274 276 276 274 273 273 277 279 279 277 274 274 274 273 273 273 274 276 277 278 281 282 282 282 283 283 284 284 285 285 285 284 280 277 280 282 281 282 281
271 270 269 268 267 267 266 266 265 264 263 264 264 264 264 264 264 265 264 265 264 265 265 265 265 265 265 265 267 267 267 269 272 273 274 275 274 272 272 271 271 271 272 272 273 273 274 275 276 275 275 275 278 279 279 277 274 274 273 273 272 272 274 275 275 276 277 278 278 279 280 281 281 281 281 284 284 284 282 281 282 281 281 282 283
270 269 268 267 266 265 265 265 264 264 263 263 263 263 264 263 264 264 264 264 264 265 265 265 264 264 265 266 266 268 268 268 270 273 274 274 275 273 272 271 270 271 271 272 271 272 273 273 274 276 277 277 278 278 278 279 275 274 274 273 273 272 275 275 276 276 276 277 277 279 279 280 280 280 280 281 282 282 283 283 283 283 282 282 283
269 267 266 265 264 264 264 263 263 263 263 262 262 262 263 263 263 263 262 264 264 264 264 263 263 264 266 267 267 268 269 269 270 273 273 274 275 274 272 271 272 271 271 271 271 271 271 271 272 274 276 277 277 278 278 279 278 275 275 274 274 276 278 276 276 278 277 277 278 279 279 280 280 280 281 281 282 283 284 285 285 285 284 284 284
266 265 264 263 263 262 262 262 262 262 262 262 261 261 263 263 263 262 262 263 262 262 262 263 265 265 266 267 268 268 269 270 269 271 273 274 274 275 273 272 273 272 271 271 271 270 270 270 270 272 275 276 277 277 278 278 278 275 275 278 279 280 278 278 278 277 277 277 277 277 278 279 279 280 280 281 282 283 284 285 286 287 287 287 286
265 264 263 262 261 261 261 261 260 260 260 261 261 261 262 261 261 261 262 262 262 262 263 264 265 265 265 267 268 268 269 269 271 270 272 273 274 275 275 275 276 273 271 270 270 270 270 270 270 274 276 277 277 277 277 277 276 274 277 278 279 279 279 278 278 278 277 277 277 277 278 279 279 280 281 281 283 283 284 285 286 287 287 287 287
264 263 261 261 260 260 260 260 260 260 260 260 261 261 261 260 260 261 262 262 263 263 265 265 265 265 265 266 267 268 268 268 270 271 271 273 274 275 276 276 276 273 271 270 270 269 269 270 271 275 276 276 276 276 276 275 273 276 277 277 277 277 275 277 278 278 277 277 277 277 278 279 280 280 281 282 283 284 284 285 286 287 287 287 287
262 261 260 260 259 259 259 259 259 259 260 260 260 261 261 260 260 262 262 263 264 264 265 264 264 265 265 265 266 267 267 268 268 270 272 273 274 275 275 275 275 275 270 270 270 270 272 275 274 274 274 274 274 274 273 273 274 275 275 275 275 272 272 273 274 276 276 276 277 277 278 279 281 282 283 283 284 284 285 285 286 287 287 287 287
261 260 259 259 259 258 258 259 259 259 260 260 261 261 260 261 262 263 262 263 264 264 264 265 265 265 265 265 265 266 267 267 268 269 270 271 272 273 274 274 273 273 272 270 272 273 273 273 273 272 272 271 269 268 268 269 273 273 273 273 270 270 270 270 271 271 272 275 277 277 278 280 281 283 283 283 283 283 284 284 285 285 286 285 285
260 259 259 258 258 259 259 258 259 259 259 260 261 262 262 262 263 263 264 264 264 264 264 265 265 265 264 265 265 266 266 266 267 268 269 270 270 271 270 270 272 271 269 268 270 269 268 268 268 271 270 271 271 271 270 270 269 269 269 269 269 269 269 269 270 270 271 272 274 277 280 281 282 283 283 283 282 283 284 284 284 285 285 285 285
259 259 258 258 258 258 259 259 258 258 259 260 260 261 262 263 263 263 264 264 263 264 265 265 264 264 264 264 265 265 265 266 267 268 269 270 270 270 270 269 269 268 267 268 268 267 265 267 267 265 266 266 266 266 266 267 267 267 267 268 268 269 270 271 272 270 271 272 273 274 277 281 281 282 283 283 283 283 285 285 284 285 285 285 284
259 258 258 258 258 259 259 259 260 259 259 260 262 262 262 262 263 264 265 265 265 265 265 265 265 265 265 265 264 264 265 265 267 272 271 272 270 269 269 269 268 268 269 272 267 265 264 263 263 263 263 263 263 264 264 265 265 266 266 267 267 267 268 268 267 268 269 270 270 271 272 275 280 282 282 282 283 283 285 284 285 285 285 285 284
258 258 258 258 258 259 259 259 260 260 259 260 260 261 263 265 265 264 263 267 268 269 269 266 266 266 265 266 266 265 265 267 271 272 272 272 273 273 272 272 272 270 271 271 267 262 261 261 261 261 262 262 262 262 263 263 264 264 265 267 266 266 267 267 267 268 268 268 269 269 271 274 276 281 282 282 283 283 284 285 284 285 284 284 284
258 258 258 258 258 259 259 259 259 260 260 260 260 260 261 264 267 268 267 267 268 269 269 269 269 268 267 265 267 269 269 271 272 272 272 272 272 272 272 271 271 270 271 266 262 261 260 260 260 261 261 261 261 262 262 263 263 263 264 265 265 266 266 266 267 268 267 268 268 269 271 272 273 276 281 282 282 283 284 285 285 285 284 284 284
258 258 258 258 259 259 259 259 260 260 260 261 261 261 261 261 263 267 268 267 268 268 268 268 268 268 268 268 267 266 269 270 271 271 271 271 271 271 271 270 270 270 269 268 260 260 260 259 260 260 260 260 261 262 262 262 263 263 264 264 264 265 266 266 267 267 267 267 267 268 269 270 271 273 276 281 283 283 283 284 284 284 285 285 285
259 259 259 259 259 260 260 260 260 260 260 260 261 262 262 261 261 262 265 266 267 267 267 267 267 267 268 268 268 268 268 269 270 270 270 270 270 270 270 269 269 269 267 262 259 259 259 259 259 260 260 260 260 261 262 263 263 263 263 264 264 265 266 267 268 267 267 267 268 268 268 269 269 271 274 276 281 282 283 283 284 285 285 284 284
260 259 259 259 259 260 260 260 260 260 261 261 261 262 262 263 263 262 261 261 263 265 265 265 266 266 267 267 267 268 269 269 269 270 269 270 270 269 268 264 267 268 265 260 259 258 259 258 259 259 260 260 261 261 261 262 263 263 263 264 265 265 266 267 267 266 267 267 267 267 267 268 268 269 270 272 276 281 283 283 284 284 284 284 284
261 260 259 260 260 260 261 261 261 261 260 260 260 260 260 259 259 260 260 260 260 259 258 259 262 265 264 264 266 267 268 268 269 269 269 269 268 267 264 260 259 259 259 259 259 258 258 258 258 259 259 259 260 261 261 262 262 263 263 263 264 265 266 266 266 267 267 267 266 266 267 267 267 268 269 269 272 274 280 284 284 284 284 284 284
260 260 260 260 261 261 261 260 261 260 259 260 260 260 259 258 258 257 257 257 257 256 257 257 256 259 263 263 265 266 267 268 268 268 267 267 266 264 257 257 257 257 257 258 258 258 258 258 258 258 259 259 260 260 261 262 262 263 263 263 264 265 265 265 266 266 267 266 266 266 266 266 266 267 267 268 270 273 277 281 285 285 285 285 285
260 260 260 261 261 261 260 260 259 260 260 259 258 258 258 257 257 256 256 256 255 256 256 255 255 256 259 258 261 263 266 266 266 266 265 265 264 259 256 256 256 256 256 256 257 257 257 257 258 258 259 259 260 260 261 262 262 263 264 264 264 265 265 266 267 267 266 265 265 265 265 265 266 266 266 266 268 270 274 278 282 285 285 285 285
260 260 261 261 260 259 259 259 260 260 258 258 258 257 256 256 256 255 255 255 255 255 254 254 256 254 254 254 259 259 260 263 263 261 261 260 257 255 255 255 255 255 255 255 256 256 256 257 257 258 258 259 260 260 261 262 262 263 263 263 264 265 268 267 266 266 266 265 265 265 265 265 265 265 266 266 266 268 270 275 279 283 285 285 286
260 262 262 262 261 259 259 258 258 257 257 257 256 256 255 255 254 254 254 254 254 254 254 253 253 254 253 254 255 258 260 256 255 253 254 254 255 255 254 254 254 254 255 255 255 255 255 256 257 257 258 259 259 260 261 261 262 262 263 263 263 265 265 265 266 266 265 265 265 265 265 265 265 265 265 265 266 267 269 272 276 280 284 285 285
260 261 261 262 260 259 258 257 257 256 256 255 255 255 255 254 254 254 254 253 253 253 253 253 253 253 253 253 254 258 256 254 253 252 252 253 253 253 253 253 253 253 253 254 254 254 255 255 256 257 258 258 259 260 261 261 262 262 263 263 264 265 265 266 266 266 265 265 265 265 264 264 265 265 265 265 266 267 268 271 275 278 283 286 286
260 260 260 262 260 258 256 256 255 255 255 255 255 254 254 254 254 253 253 253 253 253 252 252 252 252 253 256 261 261 255 253 251 251 252 252 252 252 253 253 253 253 253 253 254 254 254 255 256 256 257 258 259 260 261 261 262 262 262 263 264 265 266 266 266 266 265 265 264 264 264 264 264 264 264 265 268 268 269 271 273 276 280 285 287
260 260 260 259 258 256 255 255 255 254 255 254 254 254 253 253 253 253 253 252 253 253 252 252 252 251 254 260 260 260 254 251 251 251 251 251 251 252 253 253 253 253 253 253 253 253 254 255 256 256 257 258 259 259 260 261 262 262 262 262 264 266 266 266 266 266 265 264 264 264 264 264 265 265 265 267 266 266 267 269 272 276 280 285 288
259 259 258 257 256 255 255 254 254 254 253 253 253 253 253 252 252 252 252 252 252 252 252 251 251 251 251 257 257 257 251 250 251 250 250 251 251 252 252 252 253 253 253 253 253 254 254 255 255 256 257 258 258 259 260 261 262 262 262 263 265 266 266 266 266 266 265 264 264 264 264 264 264 264 264 265 266 267 267 269 272 275 280 285 289
258 257 256 256 256 255 254 254 253 253 253 253 252 251 251 252 252 252 251 251 251 251 251 251 251 250 250 251 251 251 250 250 249 250 249 250 250 251 251 252 252 252 252 252 253 254 254 254 255 256 257 258 259 260 261 262 262 262 262 264 266 266 266 266 266 265 265 264 264 264 264 264 264 264 264 265 266 266 268 270 272 276 281 287 290
257 256 255 255 255 254 253 253 253 252 251 251 251 250 251 251 251 251 251 251 251 251 251 250 250 250 250 249 249 249 249 249 250 249 249 250 250 251 251 251 251 251 251 252 253 253 254 254 255 255 256 257 258 260 261 262 263 263 263 264 266 266 267 266 266 266 266 265 264 264 264 263 263 264 264 265 266 266 267 269 272 276 281 288 289
256 256 255 254 253 253 253 252 252 251 251 251 251 250 250 251 251 251 251 251 251 251 250 250 249 249 249 249 249 249 249 248 249 249 250 250 250 250 251 251 251 251 251 252 252 252 254 254 255 255 255 256 258 260 261 262 263 264 264 266 268 268 268 268 268 267 266 265 264 264 264 264 263 264 265 265 265 266 267 269 271 275 281 288 289
255 255 254 254 253 252 252 251 251 252 252 252 251 251 250 250 250 250 250 250 251 250 250 250 249 249 249 248 249 248 249 249 249 249 248 248 248 249 250 250 250 250 251 251 252 253 253 254 254 255 256 257 259 260 261 262 263 263 265 268 268 269 269 269 268 267 266 265 265 264 264 263 263 263 264 264 265 265 267 268 271 275 283 288 288
255 254 254 253 252 252 251 251 251 251 251 251 251 251 250 250 250 250 249 249 249 249 249 249 249 249 249 249 249 249 249 249 249 249 249 249 249 250 250 249 250 250 250 250 251 252 253 254 254 255 256 257 259 260 261 262 263 263 266 268 268 270 269 269 268 268 267 266 265 265 264 263 263 263 264 264 264 265 265 267 270 275 283 287 288
254 254 253 253 252 251 251 251 251 251 251 251 250 250 250 250 250 250 250 250 250 250 250 249 249 249 249 249 249 249 249 249 248 248 249 249 249 249 250 249 249 249 249 250 251 251 252 253 254 255 256 258 259 260 261 262 262 263 266 268 268 270 270 269 268 268 267 266 265 265 264 264 263 263 264 264 264 264 265 267 269 272 280 286 287
254 254 253 252 252 252 252 252 252 252 251 251 251 250 250 250 250 250 251 251 251 251 251 250 249 249 249 249 248 248 249 248 249 249 249 249 249 249 249 249 249 249 249 249 250 251 252 253 254 255 256 257 259 260 261 261 262 264 267 268 269 270 270 269 268 268 267 266 265 265 264 264 263 263 263 263 264 264 264 266 268 271 275 282 286
254 254 253 253 253 253 252 252 252 252 252 252 251 251 250 251 251 251 251 251 252 251 250 250 249 249 248 249 249 249 249 248 249 249 249 249 249 249 249 248 248 248 248 249 250 251 251 252 253 254 256 257 259 260 260 261 262 264 267 268 269 270 270 269 269 268 267 266 266 265 264 264 263 263 263 263 263 263 264 265 266 268 270 273 282
Wind_Speed
14 13 12 12 14 14 13 12 12 11 11 10 9 9 8 8 8 7 6 7 6 6 7 7 7 7 8 8 8 8 8 8 7 7 8 9 9 9 10 10 11 11 11 12 12 12 13 14 15 14 13 15 14 15 15 16 15 16 16 15 18 13 18 17 21 21 19 18 21 16 17 19 19 21 21 19 20 19 20 19 21 21 21 20 19
14 14 12 12 14 14 14 12 12 10 11 11 10 9 8 8 8 7 7 7 6 7 7 6 7 8 8 9 9 9 9 9 8 7 8 9 9 7 8 10 11 12 11 13 12 11 12 14 15 14 13 14 15 17 15 15 16 16 18 15 17 17 17 19 20 18 23 18 21 13 16 15 18 15 20 22 23 19 20 19 17 19 19 18 17
14 13 12 13 15 13 13 12 12 12 12 10 10 9 9 8 8 8 7 6 6 7 7 7 7 7 8 8 9 9 9 8 7 7 8 9 9 9 9 10 11 12 12 13 12 12 13 14 15 13 11 14 15 16 16 16 16 17 18 17 18 18 20 18 19 19 23 22 21 19 13 16 17 20 20 19 19 23 23 20 17 15 15 17 16
14 14 13 14 15 14 13 12 13 13 12 10 11 10 9 8 8 8 7 6 7 6 7 7 7 7 8 9 9 9 8 7 7 8 8 9 9 10 10 10 11 12 12 13 12 12 13 14 13 13 13 15 16 16 15 15 16 16 18 17 18 20 18 18 18 17 18 21 19 14 17 16 19 18 19 19 19 20 17 18 25 21 19 18 18
14 14 14 15 15 14 14 13 13 13 12 10 11 10 10 8 8 8 8 7 7 6 6 6 7 8 8 9 8 8 8 7 7 8 8 8 9 10 10 11 11 12 12 12 12 13 14 14 14 13 14 17 17 16 16 18 16 16 17 16 17 17 16 15 17 15 18 22 20 18 16 17 18 20 19 20 19 18 20 19 18 19 19 19 17
14 14 14 15 14 15 14 13 13 13 12 11 12 10 9 9 8 8 8 7 6 6 6 5 6 7 8 8 8 7 7 7 8 8 9 9 9 10 10 11 11 11 12 12 12 12 13 14 16 18 19 19 17 18 17 19 18 18 19 18 17 17 18 18 16 17 19 17 21 18 17 18 18 18 19 18 18 19 17 15 15 16 17 17 17
14 14 15 15 14 15 14 13 12 12 12 11 10 10 9 9 9 8 7 7 6 6 6 6 6 7 8 8 7 7 7 7 7 8 9 9 10 10 10 11 11 10 11 12 14 15 17 17 18 18 19 19 20 19 18 19 18 21 19 20 19 18 18 17 17 18 20 19 19 18 18 17 17 20 17 17 19 18 17 15 19 18 16 16 17
14 14 15 14 14 14 13 13 12 12 11 10 10 10 9 9 8 7 6 6 6 6 6 6 7 7 7 7 7 6 7 7 8 8 9 8 8 9 9 11 12 14 14 14 14 15 16 18 18 18 19 19 20 20 19 19 17 19 19 17 19 18 18 17 17 16 17 17 17 17 15 17 16 16 18 18 19 18 15 15 18 19 17 16 17
14 14 14 14 13 13 12 11 11 11 11 10 10 9 9 8 8 7 6 6 5 6 6 6 7 8 8 8 7 7 7 7 6 6 7 8 8 10 11 12 13 13 14 15 15 17 17 17 18 19 20 26 29 28 26 25 19 17 18 17 17 18 17 16 14 16 13 16 16 16 18 15 18 18 18 16 17 19 17 13 15 16 16 17 15
14 14 13 13 12 13 12 10 11 11 10 10 10 9 8 7 6 6 6 6 5 5 5 6 7 8 8 7 7 6 6 6 8 13 12 9 10 10 11 13 13 14 14 15 17 15 18 16 19 27 30 31 31 33 33 33 34 28 21 20 18 15 16 15 15 14 13 15 17 14 18 17 16 18 18 19 17 17 18 17 16 17 15 12 9
13 13 13 12 12 12 11 11 11 11 10 8 8 8 8 7 6 6 6 5 5 5 6 7 8 8 8 7 6 6 6 6 11 12 13 16 13 12 12 12 13 13 14 15 15 18 15 18 16 20 23 24 24 30 31 31 31 31 34 33 28 22 17 17 14 14 14 15 16 14 16 17 16 17 20 19 17 18 18 17 17 17 13 9 9
13 12 11 11 11 12 10 10 9 9 9 8 8 8 7 7 7 6 6 6 5 5 6 8 8 7 6 6 6 6 7 9 13 13 15 16 16 12 11 12 11 12 13 14 15 15 18 16 17 16 15 20 20 22 25 30 31 32 33 32 32 34 33 25 19 17 17 16 15 16 14 17 19 15 18 15 18 15 16 16 17 18 16 10 7
11 11 10 11 11 10 9 9 9 9 9 9 8 7 7 7 6 6 6 5 5 6 7 7 7 6 5 6 6 7 8 10 12 14 15 16 17 15 11 11 12 13 14 16 16 17 14 18 17 14 16 24 21 19 21 22 26 31 32 32 32 33 32 34 34 25 18 19 19 18 16 14 20 14 16 20 19 20 19 18 16 16 16 13 9
10 10 9 9 10 10 9 9 9 9 9 8 8 8 7 7 6 5 5 5 5 6 7 7 6 6 5 5 6 7 8 10 13 14 15 17 17 15 11 12 13 14 15 14 15 15 18 17 17 19 18 19 17 21 19 20 18 18 18 17 17 22 28 32 33 35 31 23 20 20 18 17 16 16 17 18 20 17 17 20 18 18 17 15 10
8 10 9 10 10 9 9 8 9 9 8 8 8 7 7 6 6 5 5 5 6 6 6 6 6 5 4 5 5 7 7 12 13 15 16 17 17 16 11 12 12 13 13 15 17 18 18 17 20 21 19 17 19 20 22 19 19 17 18 18 18 18 19 19 20 19 19 19 21 24 23 22 21 23 22 20 19 19 18 20 21 20 19 17 12
9 9 9 8 9 9 9 9 9 9 9 8 8 8 7 7 7 6 5 4 5 5 5 5 5 5 6 6 6 7 8 12 14 14 15 16 19 12 11 12 12 12 14 16 17 16 16 19 18 18 19 21 23 32 29 23 20 20 20 19 19 19 18 20 27 29 25 23 22 22 20 23 26 22 21 21 17 18 18 20 19 19 18 17 17
9 9 9 9 9 9 9 10 9 9 9 9 8 8 7 7 6 5 5 5 5 6 5 4 4 4 6 6 6 7 7 11 13 14 15 17 14 10 11 11 12 14 15 16 16 16 16 17 18 21 21 21 27 32 32 31 21 21 21 21 20 19 18 17 27 34 36 38 39 41 40 38 36 36 35 38 28 20 15 18 19 15 15 16 14
9 9 9 10 10 9 9 9 10 9 8 8 8 7 6 5 5 5 5 5 6 5 4 4 4 5 5 6 6 6 7 10 13 14 15 16 16 11 11 12 14 14 15 16 13 15 19 29 26 21 22 21 28 32 32 27 19 18 19 21 22 20 18 14 13 18 30 36 38 37 37 35 33 35 37 37 37 29 20 21 17 12 17 15 14
10 10 9 9 8 8 8 8 8 8 8 7 7 7 6 5 5 4 4 4 4 4 4 4 4 4 5 6 9 8 7 8 11 12 15 16 14 10 10 11 13 14 14 14 16 17 17 19 27 26 24 25 32 31 32 27 20 18 19 20 21 21 17 16 17 17 16 16 18 19 20 25 24 22 23 34 35 30 23 22 17 18 17 15 13
10 9 9 9 7 7 7 8 8 8 8 8 6 6 5 5 5 4 4 4 4 4 4 4 4 4 4 5 6 5 6 5 7 13 14 16 17 12 10 11 13 15 14 16 18 18 17 15 18 25 29 30 31 32 31 32 25 21 19 19 20 22 17 18 19 17 17 18 19 18 19 17 17 17 17 18 20 21 21 20 19 16 17 17 15
11 10 9 9 9 9 7 7 9 7 7 7 7 6 5 5 5 5 4 4 4 3 4 4 5 5 4 4 4 5 4 5 7 12 14 15 18 17 10 11 13 14 15 16 15 16 15 17 17 23 30 31 32 32 34 35 33 24 20 19 19 22 25 19 21 28 19 18 18 17 16 15 15 15 16 16 16 15 16 18 18 18 18 17 14
12 12 11 11 10 10 9 9 8 8 8 7 8 6 5 6 5 6 5 4 4 4 6 5 4 3 3 3 4 3 4 8 7 11 14 16 17 20 12 12 15 14 15 15 16 15 17 18 17 23 32 33 34 36 36 34 34 22 20 29 34 34 26 20 16 14 15 15 15 16 15 14 13 15 16 15 15 16 16 15 16 17 15 12 12
13 12 12 11 10 10 10 11 9 7 7 8 8 8 7 6 6 6 5 4 5 6 7 5 3 1 2 2 2 3 4 5 10 10 13 16 18 19 21 17 22 16 14 15 16 17 17 17 19 29 33 35 36 35 33 34 27 20 30 31 31 34 29 16 13 13 13 13 14 15 14 13 13 14 14 13 13 14 14 14 14 13 12 12 13
12 13 11 11 11 9 9 9 8 7 10 9 8 8 7 7 6 6 6 5 5 6 4 3 2 1 1 2 2 3 4 5 8 12 12 17 19 20 20 22 23 15 15 14 15 17 16 17 21 35 34 34 33 31 31 29 22 29 30 31 30 26 15 14 10 11 12 13 14 14 14 13 13 14 13 11 11 12 13 13 14 13 12 12 12
13 12 12 12 11 11 11 9 10 9 8 9 9 8 8 8 6 6 6 5 5 4 3 2 2 1 1 2 3 4 5 6 7 9 15 17 19 20 21 22 22 23 15 13 15 15 21 30 33 31 30 30 31 29 24 24 27 27 29 29 26 13 12 11 12 11 11 12 13 14 14 14 14 13 12 12 12 12 12 11 12 12 11 12 11
15 13 12 11 12 12 14 11 10 9 9 7 7 7 7 7 6 7 6 5 5 4 3 3 2 0 0 2 3 5 5 6 7 8 11 12 14 18 22 21 22 23 21 16 22 26 25 27 28 27 24 23 19 16 16 17 26 27 26 24 13 12 11 11 11 11 12 12 13 14 14 13 14 13 13 12 12 13 11 12 12 11 10 10 9
14 12 12 11 12 11 12 10 10 10 9 7 6 6 6 6 6 6 6 6 5 5 4 3 2 1 0 2 3 4 5 5 6 8 7 8 10 12 13 13 18 19 14 12 15 12 16 17 17 22 20 25 25 23 22 22 17 15 13 13 12 11 11 11 12 13 13 13 14 13 13 13 13 13 12 11 12 13 11 12 12 11 9 9 10
13 12 12 10 10 11 9 12 12 9 9 8 7 6 6 6 6 6 7 6 6 6 4 4 3 2 0 2 3 4 4 5 7 7 8 10 10 10 10 10 11 11 11 12 13 12 13 15 16 12 13 13 14 12 12 13 14 14 13 13 12 12 15 19 17 11 11 12 12 14 14 14 14 13 12 12 12 12 11 11 12 11 10 9 10
11 13 11 9 10 9 9 10 9 9 8 7 6 6 6 6 6 4 3 3 4 4 3 3 3 2 1 1 2 3 4 5 6 11 12 16 14 12 11 11 12 11 14 22 15 11 10 10 10 12 12 14 14 14 14 14 13 12 14 13 11 12 12 11 11 12 12 12 13 13 14 14 14 12 12 12 12 12 10 11 11 12 9 10 11
11 11 9 9 9 9 8 7 7 7 8 7 6 4 3 7 5 5 6 9 9 6 5 3 3 2 1 1 1 2 3 5 12 16 16 17 18 20 19 21 20 16 20 23 15 10 10 11 11 12 13 13 14 14 15 15 15 14 12 16 14 13 12 12 12 12 12 12 13 13 13 13 14 13 12 11 11 11 10 11 12 11 11 11 11
9 9 9 8 10 9 9 8 7 7 7 8 7 7 6 6 9 9 8 7 6 6 6 6 4 3 2 1 2 5 7 10 13 13 15 16 18 19 20 20 19 19 21 14 10 8 10 10 11 11 12 13 13 14 15 15 15 15 14 13 13 14 15 13 13 13 13 13 13 12 13 13 14 15 13 11 11 11 9 10 11 12 12 11 11
12 11 9 10 11 10 9 9 9 8 8 7 8 8 8 7 6 9 9 6 8 7 7 7 6 5 4 3 1 2 5 9 12 13 15 16 17 19 19 19 18 19 18 17 7 8 9 10 10 11 12 13 13 14 14 14 14 15 15 14 13 13 15 15 16 15 14 13 13 13 12 13 13 14 15 14 12 11 10 11 11 11 10 10 10
14 12 11 11 11 11 10 10 9 8 9 8 7 8 9 8 9 8 8 7 7 7 7 7 7 6 5 4 5 5 6 8 12 14 15 16 17 18 19 18 18 20 17 9 6 8 9 10 10 11 11 12 13 13 14 14 14 15 14 15 15 14 13 15 18 14 13 13 13 12 12 13 13 15 14 15 14 12 11 11 11 9 9 10 10
12 12 11 12 12 9 9 9 9 8 7 6 6 6 5 7 7 8 7 6 6 5 4 6 7 7 6 6 7 8 8 10 12 14 14 16 17 18 18 11 15 17 15 8 9 9 10 9 11 11 12 12 13 14 14 13 13 14 14 14 14 14 14 14 13 13 12 12 12 13 13 12 13 13 14 13 14 13 12 11 11 10 10 10 10
8 18 27 18 8 11 9 9 8 8 7 6 7 6 6 4 6 6 5 5 5 4 1 1 5 6 4 4 7 8 9 10 12 13 14 16 16 17 14 9 11 10 10 7 8 9 9 10 10 11 11 12 12 13 14 14 13 13 14 14 13 14 16 16 14 13 12 13 13 12 13 13 13 13 13 13 13 13 12 10 11 11 11 11 10
10 9 10 13 9 8 8 7 8 8 8 7 6 6 5 5 4 4 4 3 4 3 2 1 0 5 4 5 9 8 9 10 12 12 12 13 14 13 7 8 7 7 7 8 8 9 9 9 10 11 10 11 12 12 13 14 14 13 13 14 16 15 14 12 12 13 14 13 13 14 15 13 13 13 13 14 14 13 12 12 10 10 11 11 10
10 10 10 9 8 8 8 7 7 8 8 7 7 6 5 5 4 4 3 3 3 2 2 1 1 1 2 2 8 10 10 11 12 9 10 11 13 8 4 5 6 8 7 9 9 9 11 11 11 12 11 11 12 13 13 13 13 13 16 15 13 14 14 14 15 14 13 12 13 12 12 12 13 13 13 14 13 12 12 12 13 11 10 11 11
10 10 9 10 10 11 10 8 10 12 8 8 6 6 5 5 4 3 3 2 3 3 2 1 1 0 1 2 8 5 7 10 12 10 12 13 10 7 6 5 5 5 7 8 9 9 10 10 11 12 11 11 12 12 13 13 13 13 13 14 14 12 22 20 19 13 12 12 12 12 11 12 12 13 13 13 13 12 13 13 12 11 10 11 10
8 16 22 23 15 10 9 9 8 8 7 7 6 6 5 5 4 4 3 3 3 2 1 0 0 0 0 2 4 6 7 6 7 6 6 5 4 4 4 5 5 6 6 7 9 9 9 11 11 12 11 11 12 13 13 13 14 13 13 14 15 13 17 16 15 13 14 13 12 12 12 11 11 12 13 13 13 12 12 13 13 13 12 11 11
11 11 14 21 11 11 8 7 7 7 6 7 7 6 6 5 5 5 4 4 3 2 2 1 1 0 0 1 2 2 4 3 2 3 3 4 4 4 4 5 6 6 7 8 8 9 10 11 11 12 13 13 11 12 13 13 13 13 13 13 13 14 17 16 14 15 14 13 13 13 12 13 14 13 12 12 12 12 13 13 12 12 12 11 12
8 10 12 13 12 11 8 7 6 6 7 7 6 6 5 5 4 4 4 4 4 3 3 2 1 0 2 4 3 4 2 0 1 1 2 3 3 4 4 4 5 7 7 7 8 9 10 10 11 12 13 13 13 12 13 13 13 13 13 14 13 14 18 16 15 15 15 16 15 14 14 12 13 12 13 13 14 14 13 13 13 13 13 13 13
10 10 10 11 11 9 9 6 6 10 7 6 6 6 5 5 5 4 4 4 4 3 3 2 2 2 4 1 4 4 3 1 1 2 1 1 2 3 3 4 4 5 6 7 8 9 10 11 12 11 12 13 13 12 13 13 13 13 13 13 12 16 17 16 16 16 17 16 16 16 15 13 15 14 15 16 14 13 12 13 13 13 12 13 13
12 10 10 7 9 9 9 9 8 7 7 6 5 5 5 6 5 4 4 3 4 3 3 3 2 1 0 2 3 3 1 1 1 1 1 1 2 3 3 4 5 6 6 7 7 7 8 10 11 11 12 13 14 13 13 13 12 12 12 12 14 17 17 17 18 17 17 16 16 15 16 15 14 12 13 13 14 13 12 13 13 13 13 14 12
18 15 9 8 8 9 7 8 7 6 6 6 7 6 5 5 4 4 4 3 3 2 2 2 2 1 0 0 1 0 0 0 0 0 1 2 2 3 4 4 6 6 7 8 8 7 8 9 10 11 12 13 13 14 13 12 13 13 11 12 14 17 17 18 19 18 17 17 17 17 17 15 16 14 14 14 12 13 13 12 13 13 14 13 11
12 10 10 10 8 8 8 6 7 7 7 6 6 5 5 5 5 4 4 4 3 3 2 2 1 1 1 1 0 1 0 0 1 1 1 1 2 3 4 5 5 7 8 8 8 8 8 9 10 11 13 13 13 14 14 14 15 13 11 13 13 15 17 20 19 17 16 17 16 14 15 15 14 14 14 14 14 13 13 13 13 14 15 11 10
13 12 14 13 11 7 7 7 6 6 7 6 7 6 4 4 4 4 3 3 3 3 2 2 2 1 1 1 1 1 0 0 0 0 1 1 3 3 4 5 5 7 7 8 9 9 9 9 10 11 12 13 14 14 14 15 16 14 12 11 14 13 16 18 18 17 17 17 17 15 13 13 14 13 17 16 14 13 13 14 14 14 15 10 9
12 10 13 9 10 8 7 6 6 7 6 6 6 6 5 4 4 3 3 3 3 2 2 2 2 1 1 1 1 0 1 0 0 0 1 2 3 4 4 5 6 7 8 8 8 9 9 10 10 11 12 12 13 14 15 15 16 13 11 13 13 15 17 19 18 17 17 18 16 14 15 14 14 14 17 16 14 14 14 14 14 16 15 8 5
9 7 7 7 8 8 8 6 9 8 5 5 6 5 5 5 4 3 3 2 2 2 2 2 2 1 1 1 1 1 0 0 0 1 1 2 2 3 4 5 6 7 8 9 9 9 9 10 10 11 12 13 14 14 14 16 16 12 12 14 15 17 24 27 20 19 18 17 15 15 16 15 14 14 15 16 15 14 15 14 15 14 12 6 4
8 9 9 8 7 8 7 7 5 6 6 6 6 6 4 4 4 3 3 2 2 2 2 2 2 1 1 1 1 1 1 1 0 1 1 1 3 3 4 5 6 7 7 8 9 10 10 10 11 11 12 12 13 14 15 15 14 12 15 16 22 33 30 32 25 23 27 18 15 16 16 15 16 15 16 15 15 14 14 14 14 14 13 6 4
8 8 8 7 6 6 5 5 6 6 5 5 6 6 5 4 4 3 3 3 2 2 2 2 1 1 1 1 1 1 0 0 1 1 1 2 3 3 4 5 6 7 7 8 9 10 10 10 11 11 12 12 13 13 15 12 12 13 16 21 33 32 29 33 32 35 27 18 17 15 16 16 16 16 15 14 14 15 14 13 14 13 11 8 3
13 10 7 8 7 6 6 6 6 5 5 5 6 5 5 5 4 4 3 3 3 2 2 2 2 1 1 1 1 0 0 0 1 1 1 2 3 3 4 5 7 7 8 8 9 9 10 10 11 12 12 13 13 14 12 12 12 14 25 34 34 33 31 32 28 31 37 26 16 17 16 18 18 19 16 16 16 14 16 17 14 12 10 9 7
Wind_Direction
171 174 166 166 162 167 166 165 167 167 167 173 177 178 176 178 184 186 186 199 199 210 219 229 234 239 246 250 253 258 259 261 262 263 262 265 265 267 270 270 272 273 273 273 269 271 271 272 273 274 278 276 275 274 272 272 271 268 266 265 263 261 260 261 265 272 270 263 271 275 277 284 284 278 278 278 277 275 269 267 267 265 267 265 263
175 171 167 166 168 167 165 164 165 167 168 173 178 173 175 180 180 182 192 197 199 211 218 225 231 239 243 247 252 255 256 256 258 258 259 265 267 267 269 272 271 272 273 273 274 272 273 272 272 274 273 275 276 275 276 276 273 270 267 265 265 265 260 267 268 270 273 273 271 277 280 279 281 281 281 281 280 275 268 262 259 261 264 263 260
169 164 165 167 169 164 161 165 167 168 170 173 177 173 176 178 179 184 191 193 199 206 216 220 228 233 242 247 249 251 251 252 252 255 260 263 267 267 268 270 271 271 270 270 273 275 275 274 274 276 276 276 275 275 276 274 274 272 269 266 264 263 265 264 268 267 269 271 272 278 279 279 277 280 275 270 268 273 278 279 278 272 266 265 265
166 163 165 165 164 163 165 165 167 169 171 173 174 173 175 176 180 184 189 193 197 204 209 218 228 237 242 244 244 246 248 250 252 260 260 262 265 267 268 266 266 268 268 270 272 273 272 273 271 273 276 276 275 276 273 273 272 271 271 268 268 268 266 264 259 265 269 274 272 273 278 282 275 275 280 278 269 267 261 262 266 267 267 266 266
162 164 162 161 164 164 165 164 168 170 170 170 172 171 175 174 179 184 185 193 197 200 210 216 228 234 237 239 243 243 247 251 255 258 261 261 263 266 268 267 264 266 267 268 270 271 271 269 273 273 276 276 276 274 273 271 270 269 268 267 265 267 269 267 266 262 265 268 276 274 278 273 275 278 273 277 277 268 268 264 264 267 268 266 263
161 162 162 162 165 166 166 166 169 169 168 169 169 172 172 176 178 181 186 191 193 202 210 221 224 233 238 242 245 249 249 252 255 259 263 264 264 264 265 266 267 267 269 270 269 268 271 276 279 284 282 275 269 271 269 270 270 268 267 267 267 266 265 264 264 265 264 268 271 277 271 271 277 274 273 271 278 282 281 274 268 264 263 265 259
163 162 165 163 165 168 168 167 165 164 167 166 165 169 173 174 177 177 179 184 190 203 212 218 228 233 240 242 244 246 250 254 254 258 259 262 264 264 268 271 270 271 271 275 279 279 278 276 274 271 269 268 266 264 265 267 267 265 264 267 265 265 265 263 261 261 261 264 265 267 271 270 272 279 278 276 271 266 267 272 273 268 268 263 262
165 165 165 166 166 168 164 162 162 161 161 159 164 168 168 169 173 170 172 180 192 205 213 220 228 234 240 242 244 245 249 251 254 255 261 264 267 270 271 276 280 281 278 276 275 274 274 273 270 267 265 262 262 260 259 262 262 266 262 266 267 264 264 262 261 260 261 261 263 267 264 272 272 275 284 287 280 269 255 254 265 269 268 260 251
165 166 166 167 166 160 155 155 154 153 155 157 159 163 163 164 165 168 172 182 195 204 213 222 231 238 238 239 241 244 245 249 249 253 258 269 271 277 277 276 277 279 280 278 276 276 272 271 268 268 263 267 264 268 264 262 259 258 259 255 261 261 260 259 259 261 257 263 260 262 262 263 270 274 281 274 274 278 277 263 262 263 266 269 255
166 165 168 166 157 154 149 146 150 150 153 157 160 161 160 160 162 167 174 187 196 205 213 227 231 235 238 239 240 242 245 245 243 250 259 267 277 280 282 282 282 281 278 280 279 274 275 272 274 269 273 271 275 273 273 272 269 268 264 260 257 255 254 251 250 248 248 254 256 253 259 255 262 268 274 275 277 279 283 282 273 262 259 255 260
166 164 166 158 149 145 144 149 148 152 154 154 155 156 157 157 162 169 177 190 199 204 218 228 230 231 231 236 243 248 250 248 253 261 270 279 283 285 284 285 283 279 281 282 281 283 281 280 275 278 277 278 277 278 276 275 274 273 271 268 265 259 254 253 245 241 248 248 253 247 252 258 261 270 273 280 279 281 278 277 278 280 265 270 275
161 161 155 145 145 145 146 146 147 150 149 151 150 150 151 155 163 171 180 191 199 203 219 226 230 231 232 240 247 252 256 256 262 270 279 283 286 287 288 289 289 288 285 284 285 288 288 286 287 281 278 278 279 280 278 278 276 274 274 273 270 268 265 262 261 259 258 259 258 256 255 264 267 261 271 270 276 277 281 285 284 282 272 261 258
153 149 141 142 144 144 143 145 145 146 148 147 144 146 154 159 167 175 188 189 194 209 221 227 229 231 237 241 252 258 261 266 272 281 285 288 291 295 293 290 288 285 285 285 287 288 286 291 287 284 283 283 283 280 280 279 277 277 276 276 276 275 273 272 270 267 265 263 262 260 254 263 265 264 266 270 273 277 281 281 281 285 286 280 269
143 146 140 145 146 145 144 142 144 144 142 143 145 152 160 169 170 175 178 189 202 219 223 226 229 232 236 245 258 265 267 270 279 285 290 296 300 302 295 292 290 288 286 286 288 290 292 290 292 292 290 287 281 283 280 278 277 275 272 268 266 269 271 273 274 273 270 268 269 268 268 266 266 271 268 268 270 266 271 274 280 283 285 282 285
145 147 145 147 144 144 142 141 140 140 141 145 151 157 162 164 169 176 181 191 204 216 221 221 228 226 239 248 253 264 268 274 283 291 297 302 304 307 301 297 291 285 286 289 291 290 287 287 289 287 285 287 284 283 284 280 277 273 269 265 262 262 260 262 267 268 267 264 266 264 264 260 262 264 264 261 258 263 261 266 270 274 281 286 281
144 144 148 145 144 143 139 141 138 139 146 151 154 159 162 166 170 177 182 194 207 221 229 224 226 230 236 243 251 264 274 281 293 297 303 308 312 311 305 299 296 294 293 293 290 287 287 288 285 286 288 285 288 289 287 286 281 277 272 266 264 261 257 259 258 265 266 266 262 260 258 259 255 255 254 258 257 255 259 261 261 260 264 267 271
157 151 144 140 144 146 146 141 141 143 149 150 156 160 159 166 169 174 179 197 209 216 217 226 229 230 237 244 255 269 277 286 297 305 311 314 316 311 307 302 299 298 296 294 292 290 290 288 290 291 291 293 292 293 293 291 286 283 281 279 276 273 267 264 261 261 266 265 266 267 264 259 252 254 250 255 255 257 257 258 253 255 263 267 268
151 147 146 144 140 140 144 141 139 143 148 153 154 152 150 156 167 179 179 200 210 210 218 232 234 233 241 247 256 267 277 287 299 309 316 316 318 314 310 307 303 301 298 295 293 294 295 295 296 295 296 294 295 296 296 297 294 293 291 289 287 283 281 277 266 257 262 263 263 266 268 267 262 262 260 260 261 257 250 252 257 259 256 257 265
153 147 133 125 127 123 123 124 131 138 141 145 145 147 152 157 162 169 189 207 216 215 222 235 236 247 248 253 263 270 272 283 301 313 316 318 320 316 311 306 305 302 301 300 301 301 298 298 299 299 298 297 299 300 300 299 293 288 285 282 280 278 277 277 274 272 265 259 259 261 261 259 258 257 255 257 261 258 250 249 252 254 258 256 254
117 101 109 113 106 107 117 119 123 129 135 128 130 133 141 149 161 169 193 208 215 217 217 232 243 257 259 250 252 268 283 292 301 310 318 320 321 317 311 308 304 305 305 306 306 305 304 301 302 302 303 303 302 301 298 298 297 295 289 284 281 280 278 271 267 267 272 272 272 270 265 259 251 249 247 249 251 248 247 244 242 243 249 252 247
126 124 117 115 116 117 115 118 122 121 125 132 133 141 149 157 159 178 195 216 207 227 233 247 247 249 256 266 270 272 273 299 306 314 319 320 320 321 312 306 306 307 308 307 305 305 306 306 307 305 304 303 302 301 303 303 300 296 290 284 279 279 279 270 266 267 264 264 266 267 266 260 252 248 250 252 252 248 241 237 234 234 235 237 233
127 125 130 128 127 125 127 128 125 130 132 136 141 149 159 161 170 177 197 197 197 224 236 235 238 253 268 272 270 282 300 314 319 315 317 318 318 318 313 306 309 310 310 307 306 305 307 308 306 306 306 304 304 307 306 304 302 302 295 293 292 291 290 275 267 259 254 259 259 260 261 256 249 247 245 246 246 246 246 241 236 234 230 232 236
131 130 128 127 128 130 132 136 138 138 142 148 151 153 154 158 172 185 198 184 196 221 228 226 228 252 272 286 295 307 313 317 319 318 319 319 319 318 315 314 316 315 311 307 307 308 308 306 303 303 306 308 308 308 307 307 309 303 301 300 302 304 306 291 262 252 252 256 259 262 262 256 250 251 245 246 245 243 246 243 240 235 229 232 233
127 126 125 126 124 123 127 130 129 141 154 152 153 154 158 160 174 186 188 188 192 213 214 205 225 227 279 306 311 320 323 321 317 317 318 319 319 319 320 320 319 316 313 308 306 306 306 305 308 311 310 309 310 311 311 311 307 306 308 308 311 313 307 303 274 258 257 258 258 260 262 259 255 251 248 244 248 249 250 247 246 239 232 234 232
125 126 128 131 132 133 137 141 149 153 155 156 159 161 163 166 177 186 184 195 195 207 206 199 202 192 305 316 317 323 325 320 318 315 320 320 321 323 324 323 323 321 316 309 308 305 308 313 313 312 313 313 313 313 311 307 307 310 312 312 314 308 310 315 313 300 274 261 259 261 261 260 256 253 245 243 243 249 252 252 248 239 226 224 229
132 133 132 133 135 139 142 146 150 151 158 163 166 162 158 170 179 174 183 184 188 198 200 194 171 132 299 320 321 323 323 320 321 319 312 312 325 327 327 327 325 321 319 314 311 314 318 316 315 314 314 316 317 315 311 308 310 312 311 312 309 309 313 315 311 310 304 297 280 265 262 262 259 253 244 238 237 241 243 248 248 241 224 224 225
130 133 135 131 136 142 144 147 154 158 164 160 167 163 164 182 182 176 179 175 184 191 193 177 153 136 332 321 320 324 325 318 318 309 307 324 329 329 330 327 325 323 321 313 319 326 320 318 317 319 319 318 318 315 313 312 312 312 312 311 309 309 310 309 307 305 301 295 295 289 274 262 260 259 247 236 235 238 236 241 244 238 222 217 221
139 138 137 135 143 151 145 146 149 151 162 163 163 164 172 185 180 182 175 176 180 186 177 167 147 134 266 321 319 324 315 316 314 312 328 334 333 333 331 328 329 327 324 320 335 331 319 317 318 317 321 323 321 320 317 315 311 313 314 313 310 308 307 306 304 296 294 297 298 303 299 284 260 255 248 240 240 241 236 237 238 239 230 225 224
122 128 131 134 138 143 140 148 152 149 154 160 162 163 169 179 182 162 157 159 184 179 173 152 138 145 179 284 309 310 314 312 306 327 335 337 338 338 335 337 335 332 329 336 338 328 318 322 324 328 330 328 327 326 326 324 319 314 312 315 317 316 314 316 311 307 306 309 309 305 300 299 283 258 251 245 243 242 236 238 237 243 237 226 231
130 136 138 137 137 136 135 143 141 140 147 150 147 141 185 189 169 162 170 195 202 199 171 154 137 136 178 265 274 287 295 297 321 337 341 342 342 341 340 339 339 335 338 346 345 328 331 331 331 332 332 331 328 326 326 327 325 323 322 325 323 318 318 315 310 307 309 307 303 301 299 299 299 281 252 247 245 247 239 237 242 234 236 231 233
130 131 139 144 147 141 143 142 146 144 148 150 150 150 159 186 190 174 172 171 173 165 128 114 94 100 128 138 315 317 312 323 338 345 348 349 347 346 343 344 343 341 347 354 343 336 332 332 330 329 330 327 328 324 321 322 323 321 319 321 324 326 323 317 313 312 310 306 304 302 304 306 307 306 285 248 247 245 246 238 240 236 232 231 232
145 149 147 143 148 146 142 144 147 149 148 153 157 157 157 153 177 189 172 177 172 148 120 97 78 81 64 55 72 316 324 338 349 354 355 355 353 351 346 345 349 354 354 354 342 336 334 332 326 327 326 326 323 320 319 316 316 322 323 318 314 316 323 323 321 316 311 308 307 308 309 309 307 305 303 289 256 244 241 243 237 237 230 232 232
137 145 147 146 146 146 147 148 151 151 151 156 160 165 159 159 156 163 171 180 176 143 99 81 66 68 59 49 19 5 359 356 1 3 3 360 358 356 353 350 355 357 360 355 347 330 331 331 323 320 321 321 319 319 317 315 321 318 313 319 319 316 307 308 312 311 311 310 310 308 308 307 306 305 303 302 286 250 239 238 242 237 236 236 237
137 143 146 150 146 146 144 146 144 144 146 146 153 156 155 156 158 154 154 161 173 162 116 74 53 48 39 35 12 10 7 8 9 8 5 3 1 359 359 351 356 3 7 355 345 337 331 323 321 321 318 316 317 316 314 313 306 314 318 304 303 310 314 313 310 307 313 315 311 306 307 304 305 304 302 301 299 284 245 233 233 233 232 235 239
126 156 156 153 132 144 143 141 135 130 135 140 148 146 138 125 138 153 162 164 164 159 146 17 20 35 33 20 1 6 11 11 14 11 9 4 3 0 355 356 358 354 356 353 341 334 326 319 314 313 314 312 312 311 308 308 311 306 308 315 309 314 318 318 315 318 317 317 314 309 306 304 302 298 295 297 298 297 284 248 230 227 230 235 237
136 130 142 145 134 128 122 124 129 133 136 138 132 126 126 133 139 132 139 143 147 142 155 127 332 312 356 12 1 2 6 12 13 15 12 8 8 8 9 1 351 346 337 338 335 327 316 306 310 308 310 309 308 308 308 307 307 311 305 305 314 310 310 313 315 316 316 315 312 315 311 303 298 294 294 290 286 286 285 282 254 233 229 232 231
136 139 147 147 134 124 121 115 118 128 124 117 121 124 122 128 131 143 148 148 133 117 106 68 4 343 37 7 355 351 357 8 7 14 14 14 22 28 19 357 343 335 332 331 327 323 319 314 312 310 309 306 308 305 304 304 303 306 313 308 292 310 317 320 322 314 314 315 313 305 302 299 297 293 291 291 291 291 288 286 279 254 235 230 230
145 147 142 138 122 126 125 127 135 129 123 127 123 119 124 127 128 125 121 116 109 100 89 89 64 61 348 318 349 349 341 355 0 7 7 10 13 12 3 344 337 330 325 325 326 322 316 312 315 313 305 302 303 307 306 304 302 299 300 307 304 293 321 325 321 314 315 313 306 303 300 294 291 291 289 285 284 286 288 286 285 272 248 237 234
125 144 144 143 139 135 131 130 129 128 124 117 120 124 129 131 131 125 121 121 108 99 114 124 113 96 6 313 335 342 3 11 10 356 347 344 351 356 342 338 331 326 320 321 322 321 318 316 312 309 305 306 305 302 302 303 305 305 301 299 300 301 321 329 325 323 323 319 312 306 298 292 286 286 284 284 283 280 277 278 277 273 257 241 231
137 135 137 137 131 134 119 116 120 122 125 124 127 130 131 141 144 139 138 132 133 142 157 150 151 52 304 304 283 337 30 6 345 324 317 332 339 340 337 331 331 323 321 319 320 319 316 312 313 315 314 306 300 305 307 306 304 303 304 304 303 318 327 324 325 327 324 322 317 313 308 306 302 298 290 282 278 276 277 276 276 274 268 248 238
131 131 141 142 131 128 111 117 123 122 124 122 125 133 140 139 130 132 135 135 136 144 151 150 155 179 229 253 329 53 111 306 283 282 296 312 320 322 328 327 322 320 319 318 318 317 315 313 312 310 311 313 310 303 305 306 306 304 303 307 304 317 323 324 328 328 327 325 322 316 311 306 307 303 297 292 289 284 279 276 272 269 266 255 239
133 133 133 133 133 127 127 122 119 118 106 113 125 128 134 132 132 135 137 137 141 147 146 152 172 192 261 25 41 78 108 205 235 269 282 299 302 310 313 309 307 305 310 310 312 312 311 313 311 312 312 314 311 305 308 305 306 307 305 304 309 328 330 329 331 331 331 325 324 320 315 312 311 306 299 294 290 288 279 276 270 271 268 255 235
140 125 117 114 129 138 130 125 117 119 120 124 117 115 115 120 128 132 132 132 140 147 147 159 179 172 312 38 42 79 130 213 218 262 283 294 301 306 308 307 308 309 306 302 299 299 305 307 308 309 312 309 313 310 302 302 298 303 303 301 320 335 335 335 335 332 329 324 321 317 314 309 307 300 297 293 289 286 280 276 277 272 271 256 231
100 101 99 102 106 97 98 115 120 115 117 110 113 120 122 117 123 128 130 132 144 146 151 174 171 149 136 24 29 118 187 203 247 265 280 298 309 309 304 307 307 309 310 307 307 307 308 308 310 310 308 310 310 313 306 302 310 309 302 310 323 335 339 339 337 335 333 328 323 321 322 317 311 302 295 293 290 288 289 285 281 279 275 255 220
114 125 126 131 130 122 120 106 105 106 110 117 117 113 116 127 133 136 134 141 145 146 163 171 159 146 135 176 195 204 185 224 254 244 294 306 305 302 303 305 306 312 310 310 310 314 311 312 312 313 314 315 316 315 317 320 317 305 297 312 324 335 343 341 337 332 331 328 324 318 315 314 313 313 307 304 304 299 296 291 290 285 282 252 206
126 125 116 115 122 113 117 114 113 120 132 131 127 129 125 127 129 136 138 135 141 155 167 168 152 146 164 188 211 196 220 214 242 252 289 308 307 305 300 303 305 307 305 306 310 311 313 312 315 314 316 315 315 318 320 321 321 312 304 315 330 331 341 340 336 334 336 334 328 322 315 312 311 310 316 314 307 303 297 293 288 278 272 244 204
116 114 119 114 118 108 107 116 128 136 126 126 116 124 129 137 132 125 127 130 141 158 164 154 151 152 166 189 196 216 238 237 285 314 298 281 287 291 298 306 309 308 309 310 309 312 315 318 319 316 316 316 316 319 323 326 322 313 304 329 330 338 346 344 342 340 339 337 330 325 325 322 315 315 319 318 312 309 307 296 292 286 277 231 202
116 115 117 113 114 118 129 128 130 134 114 117 119 123 123 129 129 133 129 131 154 169 157 142 145 155 166 191 200 213 244 237 284 267 285 283 290 294 306 309 310 313 312 311 313 316 318 318 319 319 319 319 321 324 325 327 321 310 319 337 336 342 349 349 345 345 344 339 334 333 331 329 326 321 317 322 319 316 313 309 304 303 284 245 205
123 128 129 130 123 129 132 136 133 134 131 124 115 122 123 127 130 128 134 146 162 166 156 151 149 154 177 181 201 214 236 244 267 276 288 291 294 300 305 311 311 313 312 312 312 316 319 320 322 322 321 319 321 323 327 320 315 311 327 339 337 345 352 352 351 351 348 343 339 338 338 336 333 328 328 324 323 318 310 305 303 298 299 261 219
116 118 114 114 116 121 117 122 125 119 119 122 124 121 125 126 130 133 144 160 165 159 156 144 146 157 168 186 186 198 211 302 304 297 298 300 300 309 308 313 315 318 316 312 311 313 318 319 322 322 325 322 324 326 325 312 307 320 333 336 337 345 355 355 354 353 353 347 344 343 343 340 339 338 339 333 331 321 318 319 314 309 310 307 224
103 114 119 120 115 116 120 120 117 114 122 124 125 127 134 137 136 137 153 164 161 151 144 148 151 159 190 182 176 171 147 272 277 282 289 303 308 309 311 318 320 321 315 312 313 315 317 320 323 323 324 323 325 321 314 310 314 320 339 340 341 347 357 359 358 354 353 350 346 349 349 348 346 346 341 339 334 332 329 326 318 323 324 323 313